Zurück zum Katalog

STARLINK-1527

AktivKommunikationVLEO
NORAD 46048·PAYLOAD·🇺🇸 United States

Gestartet Aug 7, 2020 von Cape Canaveral Space Force Station

Loading…

Nächste Überflüge (nächste 24 Stunden)

TLE

AktuellSource: CelesTrak SupGP

Epoche: Sep 15, 2026, 01:56 UTC

1 46048C 20055X   26258.08104167  .00040851  00000+0  13134-2 0  2583
2 46048  53.1571 312.6119 0001311  96.9032  46.4161 15.31687161    16

Verfolge STARLINK-1527 in Echtzeit mit AllMySat

Download on the App Store